Weather Roundup
Issued by NWS

Home | Current Version | Previous Version | Text Only | Print | Product List | Glossary On
Versions: 1 2 3 4 5 6 7 8 9 10 11 12 13 14 15 16 17 18 19 20 21 22 23 24 25 26 27 28 29 30 31 32 33 34 35 36 37 38 39 40 41 42 43 44 45 46 47 48 49 50
000
NZUS93 KARX 262259
HRRWXR

CURRENT HOURLY OBSERVATIONS ACROSS
MUCH OF THE UPPER MISSISSIPPI VALLEY
NATIONAL WEATHER SERVICE LA CROSSE WI
500 PM CST WED NOV 26 2014


...SOUTHEAST MINNESOTA...


CITY           SKY/WX    TMP DP  RH WIND       PRES   REMARKS
ROCHESTER      CLOUDY    22  20  92 N6        30.20R FOG     WCI  14
ROCHESTER/MAYO CLOUDY    26  22  86 NW3       30.21R
WINONA         LGT SNOW  28  25  86 N5        30.23R WCI  23
AUSTIN         LGT SNOW  25  21  86 N5        30.20R WCI  19
ALBERT LEA     CLOUDY    25  23  93 N7        30.22R FOG     WCI  17
DODGE CENTER   LGT SNOW  25  23  93 N8        30.20R WCI  16
PRESTON        LGT SNOW  22  21  93 N5        30.19R WCI  16
OWATONNA       MOCLDY    25  21  86 N8        30.23R WCI  16
FARIBAULT      CLOUDY    25  19  80 NW6       30.25R WCI  18
$$

...ELSEWHERE IN MINNESOTA...


CITY           SKY/WX    TMP DP  RH WIND       PRES   REMARKS
MINNEAPOLIS    MOCLDY    22  15  75 NW6       30.26R WCI  14
INTNL FALLS    CLEAR     -1  -8  72 NW6       30.37R WCI -13
DULUTH         PTCLDY    14   4  64 NW12      30.24R WCI   0
RED WING         N/A     27  19  74 N6        30.24R WCI  20
REDWOOD FALLS  CLOUDY    13   7  77 NW14      30.34R WCI  -2
MANKATO        CLOUDY    25  16  68 N9        30.26R WCI  15
WORTHINGTON    CLOUDY    14  10  85 NW21      30.30R WCI  -4
FAIRMONT       CLOUDY    19  14  79 NW15G23   30.25R WCI   5
$$

...SOUTHWEST WISCONSIN...


CITY           SKY/WX    TMP DP  RH WIND       PRES   REMARKS
LA CROSSE      LGT SNOW  27  23  85 NW9       30.21R FOG     WCI  18
PRAIRIE DU CHI MOCLDY    26  20  79 NE3       30.19R
BOSCOBEL       MOCLDY    22  18  85 CALM      30.20R
LONE ROCK      NOT AVBL
PLATTEVILLE    CLOUDY    25  22  88 N12       30.16R WCI  14
FORT MC COY    CLOUDY    26  19  75 CALM      30.19S
VIROQUA        CLOUDY    24  18  77 N5        30.15R WCI  18
WIS DELLS      MOCLDY    19  17  89 CALM      30.16S FOG
$$

...ELSEWHERE IN WISCONSIN...


CITY           SKY/WX    TMP DP  RH WIND       PRES   REMARKS
MILWAUKEE      CLOUDY    30  21  69 N5        30.13S WCI  25
MADISON        CLOUDY    20  16  84 CALM      30.17R FOG
GREEN BAY      PTCLDY    20  16  84 NW5       30.18S WCI  13
EAU CLAIRE     CLOUDY    23  19  85 NW5       30.22R WCI  17
BLACK RVR FLS  LGT SNOW  26  22  86 N3        30.19R
MEDFORD        LGT SNOW  22  19  87 NW6       30.14S WCI  15
WAUSAU         FLURRIES  24  19  81 NW5       30.14R WCI  18
WIS RAPIDS     CLOUDY    24  17  74 CALM      30.18S
MARSHFIELD     LGT SNOW  24  20  84 NW8       30.16R FOG     WCI  15
RICE LAKE      LGT SNOW  24  19  80 NW7       30.23R WCI  16
$$

...NORTHEAST IOWA...


CITY           SKY/WX    TMP DP  RH WIND       PRES   REMARKS
DECORAH        FLURRIES  27  23  86 N7        30.16R WCI  19
MASON CITY     LGT SNOW  25  22  88 N10       30.21R VSB 1   WCI  15
CHARLES CITY   SNOW      27  25  93 N8        30.19R VSB 1/2 WCI  18
OELWEIN        LGT SNOW  27  25  93 N13       30.16R WCI  16
$$

...ELSEWHERE IN IOWA...


CITY           SKY/WX    TMP DP  RH WIND       PRES   REMARKS
DES MOINES     FLURRIES  32  27  81 N14       30.16R WCI  22
IOWA CITY      CLOUDY    29  25  85 NE12      30.14R WCI  19
FORT DODGE     CLOUDY    25  19  80 N10       30.23R WCI  15
$$

...NORTHERN ILLINOIS...


CITY           SKY/WX    TMP DP  RH WIND       PRES   REMARKS
CHICAGO-OHARE  CLOUDY    28  21  75 E5        30.11S WCI  23
CHICAGO-MIDWAY CLOUDY    29  20  69 E6        30.12F WCI  23
MOLINE         CLOUDY    29  23  78 E10       30.11R WCI  20
ROCKFORD       CLOUDY    27  18  69 NE6       30.15S WCI  20
PEORIA         CLOUDY    30  24  78 E13       30.07R WCI  20
$$

NOTE: "FAIR" INDICATES FEW OR NO CLOUDS BELOW 12,000 FEET WITH NO
SIGNIFICANT WEATHER AND/OR OBSTRUCTIONS TO VISIBILITY. WIND
SPEEDS ARE IN MILES-PER-HOUR.



USA.gov is the U.S. government's official web portal to all federal, state and local government web resources and services.